OpenBCM V2.0.2 (Linux)

Packet Radio Mailbox

IZ3LSV

[San Dona' di P. JN]

 Login: GUEST





  
LU9DCE > KEPS     14.07.18 19:28l 259 Lines 12773 Bytes #999 (0) @ WW
BID : 8655_LU9DCE
Read: GUEST
Subj: SAT TLE 15
Path: IZ3LSV<IW8PGT<IR2UBX<IW2OHX<UA6ADV<LU4ECL<LU9DCE
Sent: 180615/1259Z @:LU9DCE.TOR.BA.ARG.SOAM #:8655 BPQ6.0.16


            __    _  _  ___  ____   ___  ____    ____  ____  ____
           (  )  / )( \/ _ \(    \ / __)(  __)  (  _ \(  _ \/ ___)
           / (_/\) \/ (\__  )) D (( (__  ) _)    ) _ ( ) _ (\___ \
           \____/\____/(___/(____/ \___)(____)  (____/(____/(____/
               ESTACION DE PACKET RADIO - BUENOS AIRES (GF05OM)
                   BOLETINES INFORMATIVOS PROGRAMADOS (BIP)
                    LU9DCE@GMX.COM - RF 145070 @ 1200 BAUD
                      TELNET LU9DCE.DYNU.COM PORT 6300

+------------------------------------------------------------------------------+
OSCAR 7
1 07530U 74089B   18166.01529955 -.00000041  00000-0  20631-4 0  9993
2 07530 101.6866 133.3679 0012053 341.8428  60.1060 12.53632976994322
OSCAR 11 (UoSAT 2)
1 14781U 84021B   18165.90875201 +.00000039 +00000-0 +10967-4 0  9998
2 14781 097.6492 202.2224 0010071 090.9073 269.3295 14.83010612823107
OSCAR 19 (LUSAT)
1 20442U 90005G   18165.83838306 -.00000006 +00000-0 +13979-4 0  9996
2 20442 098.6101 104.3444 0012223 152.1347 208.0494 14.32897619483497
EYESAT A
1 22825U 93061C   18165.49192105 -.00000017 +00000-0 +11450-4 0  9994
2 22825 098.8624 141.5583 0008428 002.5360 357.5863 14.30032352288911
ITAMSAT
1 22826U 93061D   18165.92907474 -.00000015 +00000-0 +12141-4 0  9992
2 22826 098.8564 142.0414 0008706 350.4601 009.6414 14.30363907289186
RADIO ROSTO
1 23439U 94085A   18166.45046298 -.00000033  00000-0  26172-3 0  9995
2 23439  64.8170 351.6442 0157863 182.4061 177.6203 11.27567858966531
JAS 2
1 24278U 96046B   18165.79016299 -.00000045 +00000-0 -13276-4 0  9996
2 24278 098.5177 004.8782 0351313 117.0756 246.6684 13.53084218077661
TECHSAT 1B
1 25397U 98043D   18165.85279693 -.00000021 +00000-0 +98514-5 0  9996
2 25397 098.6498 106.3298 0002120 055.6318 304.5061 14.23646866035175
ISS (ZARYA)
1 25544U 98067A   18165.90217696 +.00001415 +00000-0 +28564-4 0  9991
2 25544 051.6415 030.1025 0003071 185.9356 269.3713 15.54177111118164
PCSAT
1 26931U 01043C   18165.69807113 -.00000008  00000-0  28805-4 0  9991
2 26931  67.0510 235.8319 0007848 274.8706  85.1499 14.30507778872199
SAUDISAT 1C
1 27607U 02058C   18165.90762462 -.00000034 +00000-0 +15992-4 0  9992
2 27607 064.5554 097.0026 0065061 328.8763 030.8491 14.75456674832492
CUTE-1
1 27844U 03031E   18165.91794847 +.00000027 +00000-0 +31798-4 0  9993
2 27844 098.6863 174.6079 0010279 025.2600 334.9078 14.22117568775836
CUBESAT XI 4
1 27848U 03031J   18165.94702724 +.00000027 +00000-0 +32202-4 0  9994
2 27848 098.6949 175.0339 0010360 034.9710 325.2146 14.21721194775710
MOZHAYETS 4
1 27939U 03042A   18166.20893610  .00000036  00000-0  14972-4 0  9996
2 27939  97.9903 305.3942 0013698 149.8598 331.9168 14.66693005786525
CUBESAT XI 5
1 28895U 05043F   18165.40488289 +.00000087 +00000-0 +25478-4 0  9993
2 28895 097.9087 316.9732 0018239 079.6326 280.6932 14.63553134673237
CUTE-1.7+APD II
1 32785U 08021C   18165.82887316 +.00000170 +00000-0 +24022-4 0  9992
2 32785 097.5469 178.1198 0014347 051.0388 309.2105 14.88129942548753
DELFI C3
1 32789U 08021G   18165.91946052 +.00000703 +00000-0 +52242-4 0  9996
2 32789 097.5117 220.7869 0011043 310.5786 049.4479 15.06079950551341
SEEDS
1 32791U 08021J   18165.78713679 +.00000326 +00000-0 +38686-4 0  9998
2 32791 097.5360 183.4336 0014232 032.8792 327.3309 14.90563819549073
YUBELEINY
1 32953U 08025A   18166.10765278  .00000020  00000-0  75144-4 0  9992
2 32953  82.5031  13.9739 0018477 212.4920 147.5024 12.43083407456518
PRISM (HITOMI)
1 33493U 09002B   18166.16183072  .00001061  00000-0  99481-4 0  9996
2 33493  98.1329  68.1759 0014689 329.3051  30.7301 14.96239119510042
KKS-1 (KISEKI)
1 33499U 09002H   18165.94080167 +.00000086 +00000-0 +20824-4 0  9999
2 33499 098.3561 347.6344 0008103 304.9205 055.1241 14.75335447504424
SWISSCUBE
1 35932U 09051B   18165.96280471  .00000096  00000-0  32645-4 0  9994
2 35932  98.5451 317.0697 0007071 208.4812 151.5999 14.56165935463118
BEESAT
1 35933U 09051C   18165.92147817 +.00000082 +00000-0 +29374-4 0  9997
2 35933 098.5490 318.5738 0005010 220.6024 139.4800 14.56269140463137
ITUPSAT 1
1 35935U 09051E   18165.97496681  .00000051  00000-0  22887-4 0  9998
2 35935  98.5604 318.8816 0007377 218.3028 141.7645 14.55445598463003
XIWANG-1 (HOPE-1)
1 36122U 09072B   18166.18839653 -.00000063  00000-0 -54681-4 0  9996
2 36122 100.0751 180.9173 0008219 115.0215 245.1753 13.16344960408381
TISAT 1
1 36799U 10035E   18165.90119793 +.00000203 +00000-0 +26757-4 0  9999
2 36799 098.1063 302.0560 0011634 210.1274 149.9275 14.90808470429611
JUGNU
1 37839U 11058B   18165.03777109  .00000292  00000-0  13595-4 0  9990
2 37839  19.9624  56.3445 0018971 211.9184 282.9973 14.12621202344925
SRMSAT
1 37841U 11058D   18166.10928800  .00000277  00000-0  72384-5 0  9993
2 37841  19.9720  99.0057 0012006 108.0874   7.1978 14.10608110344588
M-CUBED/EXP-1 PRIME
1 37855U 11061F   18165.87998169 +.00001097 +00000-0 +63586-4 0  9994
2 37855 101.7160 227.2343 0176698 089.1341 273.0110 15.04448500360837
HORYU 2
1 38340U 12025D   18166.10777929  .00000144  00000-0  29159-4 0  9991
2 38340  98.3659 187.7573 0010816 211.7224 148.3333 14.75561277326802
STRAND 1
1 39090U 13009E   18166.15756849  .00000008  00000-0  18307-4 0  9992
2 39090  98.5220  12.5696 0008247 308.9176  51.1273 14.35029016277537
SOMP
1 39134U 13015E   18166.22512086  .00000838  00000-0  49118-4 0  9994
2 39134  64.8627 133.2562 0012830 213.6734 146.3579 15.19173527284603
BEESAT 3
1 39135U 13015F   18165.71629304  .00000636  00000-0  42278-4 0  9996
2 39135  64.8671 148.2267 0020812 236.7065 123.2068 15.16680799284274
BEESAT 2
1 39136U 13015G   18165.42130364  .00000512  00000-0  36474-4 0  9992
2 39136  64.8681 151.9551 0022526 237.9230 121.9708 15.16150377284173
CUBEBUG 1
1 39153U 13018D   18166.21335193  .00000123  00000-0  23056-4 0  9999
2 39153  97.9790 261.4720 0015855 316.0123  43.9826 14.80401103277297
ZACUBE
1 39417U 13066B   18166.15256466  .00000135  00000-0  23368-4 0  9992
2 39417  97.5870 194.9008 0059704 160.4166 199.9360 14.80940297246498
TRITON 1
1 39427U 13066M   18165.91410764 +.00000171 +00000-0 +35701-4 0  9993
2 39427 097.6413 161.9912 0112474 266.6331 092.2003 14.67672468244054
GOMX 1
1 39430U 13066Q   18166.17768006  .00000128  00000-0  32556-4 0  9998
2 39430  97.6974 143.1953 0151032 337.4772  21.9845 14.59084551242867
HUMSAT D
1 39433U 13066T   18165.69250286 +.00000434 +00000-0 +47944-4 0  9990
2 39433 097.6039 222.1575 0032616 091.1298 269.3658 14.91870147246878
50 SAT
1 39436U 13066W   18138.34627707  .08053685  26553-5  29454-2 0  9995
2 39436  97.7009 274.5525 0018818 286.4398 133.6699 16.24208076248686
CUBEBUG 2
1 39440U 13066AA  18166.10638616  .00000164  00000-0  29874-4 0  9994
2 39440  97.6011 181.4671 0079915 201.2497 158.5389 14.75677552245616
FUNCUBE 1
1 39444U 13066AE  18165.87946380 +.00000224 +00000-0 +33946-4 0  9993
2 39444 097.5879 196.1645 0058940 156.7312 203.6591 14.81720307244722
UWE-3
1 39446U 13066AG  18165.59121205 +.00000179 +00000-0 +30534-4 0  9994
2 39446 097.5927 187.2796 0070125 182.9601 177.1205 14.78211242244149
SPROUT
1 39770U 14029E   18166.23825731  .00000376  00000-0  48239-4 0  9991
2 39770  97.8768 267.3000 0008337 205.4891 154.5936 14.86854496220070
UNISAT 6
1 40012U 14033C   18166.17743339  .00000156  00000-0  30944-4 0  9993
2 40012  97.8086  42.5249 0057720 204.5760 155.2696 14.73824637214408
DUCHIFAT 1
1 40021U 14033M   18165.70856352 +.00000326 +00000-0 +39391-4 0  9995
2 40021 097.9164 084.4231 0012709 180.0628 180.0590 14.90313535216580
QB50P1
1 40025U 14033R   18165.72776072 +.00000194 +00000-0 +26771-4 0  9992
2 40025 097.9057 081.1314 0012136 186.7060 173.3996 14.88719496215912
CHUBUSAT 1
1 40300U 14070C   18166.11262411  .00000454  00000-0  23132-4 0  9997
2 40300  97.3649 243.8527 0018441 270.7188 152.7230 15.21577980199968
NUDT-PHONESAT
1 40900U 15049B   18166.20051792  .00001584  00000-0  73733-4 0  9995
2 40900  97.4408 174.4751 0014683  42.3471 317.8895 15.21323963151619
ZDPS 2A
1 40901U 15049C   18165.96699110 +.00000643 +00000-0 +35763-4 0  9996
2 40901 097.4583 172.3481 0015055 050.3406 309.9153 15.17093708151325
ZDPS 2B
1 40902U 15049D   18166.20426337  .00000649  00000-0  36256-4 0  9998
2 40902  97.4484 170.6077 0015071  47.0023 313.2471 15.16887994151344
XW-2A
1 40903U 15049E   18166.16321509  .00001551  00000-0  40241-4 0  9991
2 40903  97.3841 200.9984 0015338  43.3295 316.9155 15.40501765153494
KAITUO 1A
1 40904U 15049F   18166.09600742  .00000174  00000-0  12789-4 0  9999
2 40904  97.4582 169.7194 0016316  48.9147  38.9276 15.15022604151188
OBJECT G
1 40905U 15049G   18166.03450022  .00000286  00000-0  19333-4 0  9994
2 40905  97.4585 167.7376 0016950  43.0192 317.2361 15.13976823151099
XW-2C
1 40906U 15049H   18166.20505295  .00000476  00000-0  28809-4 0  9996
2 40906  97.4596 169.7327 0016179  41.8920 318.3547 15.15196347151194
XW-2D
1 40907U 15049J   18166.22373716  .00000511  00000-0  30516-4 0  9998
2 40907  97.4570 169.4481 0015501  40.0335 320.2037 15.15347865151205
LILACSAT 2
1 40908U 15049K   18165.96352722 +.00000276 +00000-0 +19015-4 0  9992
2 40908 097.4682 168.5545 0017160 042.0266 318.2278 15.13514914151033
XW-2F
1 40910U 15049M   18165.97595178  .00000790  00000-0  43835-4 0  9998
2 40910  97.4570 170.5158 0016125  36.6075 323.6256 15.16542019151128
XW-2B
1 40911U 15049N   18166.04306407  .00000510  00000-0  30514-4 0  9993
2 40911  97.4605 169.8079 0015420  41.2073 319.0320 15.15291583151079
KAITUO 1B
1 40912U 15049P   18166.23739847  .00000753  00000-0  39402-4 0  9997
2 40912  97.4498 173.5923 0016021  24.4369  34.6393 15.18760087151375
